Molniya-3

operational
NORAD ID: 21706 Int'l Des: 1991-065 Owner: UNKSR/MSVYAZ Country: SU
MEOELLIPTICALHEO_ELLIPTICALSEMI_SYNCMOLNIYA

About Molniya-3

Description loading...

Live Position

Loading 3D Globe...

Upcoming Passes

Altitude History

Altitude vs Time

uPlot chart will show altitude changes over time

Two-Line Element Set

1 21706U 91065A 26042.76366372 -.00001124 00000-0 18172-3 0 9992
2 21706 63.0887 341.2319 7428617 252.1578 20.6344 2.04469625254152
Epoch: Feb 11, 2026 • Age: 184 hours

Current Status

Altitude 32867.9 km
Velocity 2.26 km/s
Sub-Earth Point 63.06°N, 131.35°E
Launch Date Sep 17, 1991
Age 34.4 years
Type other

Technical Details

Classification Payload
Mass 1750.00 kg
Dry Mass 1700.00 kg
Total Mass 1750.00 kg
Length 3.60 m
Diameter 1.60 m
Span 8.10 m
Shape Cyl + 6 Pan
Manufacturer NPOPM
Bus Type Molniya-3
Phase Status In Orbit
Owner/State UNKSR/MSVYAZ/SU

Large Constellations

Loading constellations...